Weather observations for the past three days for
Lexington, Jim Kelly Field Airport
Imperial (Metric)
Date Time (cdt) Wind (mph) Vis. (mi.) Weather Sky Cond. Temperature (ºF) Relative Humidity Wind Chill (°F) Heat Index (°F) Pressure Precipitation (in)
Air Dwpt 6 hour altimeter (in) sea level (mb) 1 hr 3 hr 6 hr
Max. Min.
25 14:55 S 14 10.00 Fair CLR 93.9 60.8 33% 94 30.13 0.0
25 14:35 S 9 10.00 Fair CLR 93.6 62.8 36% 95 30.14 0.0
25 14:15 S 15 10.00 Fair CLR 93.6 61.2 34% 94 30.14 0.0
25 13:55 S 9 10.00 Fair CLR 92.8 60.1 33% 93 30.15 0.0
25 13:35 S 9 G 16 10.00 Fair CLR 92.5 61.7 36% 93 30.15 0.0
25 13:15 S 12 10.00 Fair CLR 91.9 61.5 36% 92 30.15 0.0
25 12:55 S 8 7.00 Fair CLR 91.6 65.1 91.6 61.7 42% 94 30.15 0.0
25 12:35 SW 7 10.00 Fair CLR 90.9 63.5 40% 92 30.16 0.0
25 12:15 S 7 10.00 Fair CLR 90.5 63.7 41% 92 30.16 0.0
25 11:55 SW 7 10.00 Fair CLR 89.1 62.2 41% 90 30.16 0.0
25 11:35 S 8 10.00 Fair CLR 88.2 63.1 43% 89 30.17 0.0
25 11:15 S 7 7.00 Fair CLR 86.7 63 45% 88 30.17 0.0
25 10:55 SW 5 7.00 Fair CLR 85.1 62.4 47% 86 30.17 0.0
25 10:35 Calm 7.00 Fair CLR 83.1 63.7 52% 84 30.17 0.0
25 10:15 SW 3 7.00 Fair CLR 81.5 63.9 55% 83 30.17 0.0
25 09:55 Calm 7.00 Fair CLR 79 65.8 64% 81 30.17 0.0
25 09:35 Calm 7.00 Fair CLR 77 63.5 63% 79 30.18 0.0
25 09:15 Calm 7.00 Fair CLR 75.2 62.8 65% 77 30.18 0.0
25 08:55 Calm 7.00 Fair CLR 73.4 62.2 68% 30.18 0.0
25 08:35 Calm 7.00 Fair CLR 71.4 63.7 77% 30.18 0.0
25 08:15 Calm 5.00 Fog/Mist CLR 67.8 65.3 92% 30.18 0.0
25 07:55 Calm 4.00 Fog/Mist CLR 65.7 64 95% 30.18 0.0
25 07:35 Calm 4.00 Fog/Mist CLR 63.9 62.6 96% 30.18 0.0
25 07:15 Calm 4.00 Fog/Mist CLR 62.1 61.3 98% 30.18 0.0
25 06:55 Calm 3.00 Fog/Mist CLR 61.9 61.2 72.5 61 98% 30.17 0.0
25 06:35 Calm 4.00 Fog/Mist CLR 61.9 61.3 98% 30.17 0.0
25 06:15 Calm 5.00 Fog/Mist CLR 61.9 61.3 98% 30.17 0.0
25 05:55 Calm 5.00 Fog/Mist CLR 62.6 61.9 98% 30.17 0.0
25 05:35 Calm 5.00 Fog/Mist CLR 62.4 61.7 98% 30.17 0.0
25 05:15 NE 3 5.00 Fog/Mist CLR 61.9 61.2 98% 30.17 0.0
25 04:55 Calm 7.00 Fair CLR 63.9 62.1 94% 30.17 0.0
25 04:35 Calm 7.00 Fair CLR 64.6 62.4 93% 30.17 0.0
25 04:15 Calm 7.00 Partly Cloudy SCT120 64 62.4 95% 30.17 0.0
25 03:55 SE 3 10.00 Partly Cloudy SCT110 68.4 60.4 76% 30.17 0.0
25 03:35 SE 3 10.00 Partly Cloudy SCT110 67.6 59.7 76% 30.17 0.0
25 03:15 S 3 10.00 Fair CLR 67.6 60.4 78% 30.17 0.0
25 02:55 S 3 10.00 Fair CLR 69.4 60.3 73% 30.17 0.0
25 02:35 SE 3 10.00 Fair CLR 68.2 60.4 76% 30.17 0.0
25 02:15 SE 5 10.00 Fair CLR 70.2 60.3 71% 30.18 0.0
25 01:55 Calm 10.00 Fair CLR 69.8 61.2 74% 30.18 0.0
25 01:35 SE 5 10.00 Fair CLR 69.8 61.7 76% 30.18 0.0
25 01:15 SE 5 10.00 Fair CLR 71.4 61.9 72% 30.18 0.0
25 00:55 SE 6 10.00 Fair CLR 72 62.1 88.2 71.6 71% 30.18 0.0
25 00:35 SE 7 10.00 Fair CLR 72.3 63.1 73% 30.17 0.0
25 00:15 SE 7 10.00 Fair CLR 72.9 64 74% 30.17 0.0
24 23:55 SE 6 7.00 Fair CLR 71.6 66.4 84% 30.18 0.0
24 23:35 S 7 7.00 Fair CLR 72.3 67.1 84% 30.17 0.0
24 23:15 SE 7 7.00 Fair CLR 72.9 67.3 83% 30.16 0.0
24 22:55 SE 7 7.00 Fair CLR 74.7 67.5 78% 30.16 0.0
24 22:35 SE 8 7.00 Fair CLR 74.7 68.9 82% 30.16 0.0
24 22:15 SE 7 7.00 Fair CLR 74.5 69.3 84% 30.15 0.0
24 21:55 SE 6 7.00 Fair CLR 77.9 68.2 72% 80 30.14 0.0
24 21:35 SE 7 10.00 Fair CLR 79.2 68.4 70% 82 30.14 0.0
24 21:15 SE 7 7.00 Fair CLR 79.9 68.5 68% 83 30.13 0.0
24 20:55 SE 6 7.00 Fair CLR 81 69.8 69% 84 30.13 0.0
24 20:35 SE 7 7.00 Fair CLR 82.6 69.1 64% 86 30.14 0.0
24 20:15 SE 7 7.00 Fair CLR 83.8 67.1 57% 87 30.14 0.0
24 19:55 SE 5 7.00 Fair CLR 84.6 68 58% 88 30.13 0.0
24 19:35 SE 6 7.00 Fair CLR 86.7 66.7 51% 89 30.14 0.0
24 19:15 SE 7 10.00 Fair CLR 87.8 64.9 47% 90 30.14 0.0
24 18:55 SE 7 10.00 Fair CLR 88.7 62.8 91.9 87.4 42% 89 30.14 0.0
24 18:35 SE 8 10.00 Fair CLR 88.9 63 42% 90 30.14 0.0
24 18:15 SE 8 10.00 Fair CLR 89.6 63.3 42% 91 30.13 0.0
24 17:55 SE 8 10.00 Fair CLR 90 63.9 42% 91 30.13 0.0
24 17:35 S 7 10.00 Fair CLR 90.9 63.9 41% 92 30.14 0.0
24 17:15 S 7 10.00 Fair CLR 91.4 62.6 38% 92 30.14 0.0
24 16:55 S 6 10.00 Fair CLR 91.2 63 39% 92 30.14 0.0
24 16:35 S 7 10.00 Fair CLR 91.6 64.6 41% 93 30.14 0.0
24 16:15 S 7 10.00 Fair CLR 91.8 63 38% 93 30.15 0.0
24 15:55 SW 5 10.00 Fair CLR 91.4 63 39% 92 30.15 0.0
24 15:35 SE 7 10.00 Fair CLR 91.2 63.9 40% 93 30.15 0.0
24 15:15 S 6 10.00 Fair CLR 91.4 63.9 40% 93 30.15 0.0
24 14:55 SE 5 10.00 Fair CLR 90.7 64.2 42% 92 30.15 0.0
24 14:35 S 6 10.00 Fair CLR 90.5 63.7 41% 92 30.15 0.0
24 14:15 SE 5 10.00 Fair CLR 90.1 63 40% 91 30.15 0.0
24 13:55 SE 3 10.00 Fair CLR 89.6 64.8 44% 91 30.16 0.0
24 13:35 SE 3 10.00 Fair CLR 88.9 63.1 42% 90 30.16 0.0
24 13:15 S 3 10.00 Fair CLR 88.5 62.2 42% 89 30.17 0.0
24 12:55 Calm 10.00 Fair CLR 86.9 65.1 86.9 59.4 48% 89 30.17 0.0
24 12:35 Calm 10.00 Fair CLR 85.6 64.6 49% 87 30.17 0.0
24 12:15 Calm 10.00 Fair CLR 85.1 63.7 49% 86 30.17 0.0
24 11:55 Calm 10.00 Fair CLR 84.9 64.2 50% 86 30.17 0.0
24 11:35 Calm 10.00 Fair CLR 82.8 62.4 50% 84 30.17 0.0
24 11:15 W 3 10.00 Fair CLR 81.7 63.5 54% 83 30.17 0.0
24 10:55 Calm 10.00 Fair CLR 80.6 64.9 59% 82 30.17 0.0
24 10:35 Calm 10.00 Fair CLR 78.8 64.9 63% 81 30.17 0.0
24 10:15 Calm 10.00 Fair CLR 77 65.5 68% 79 30.18 0.0
24 09:55 Calm 10.00 Fair CLR 75.2 63.9 68% 77 30.18 0.0
24 09:35 Calm 10.00 Fair CLR 73.8 63.3 70% 30.17 0.0
24 09:15 Calm 10.00 Fair CLR 72.5 63.3 73% 30.17 0.0
24 08:55 Calm 10.00 Fair CLR 71.1 62.4 74% 30.17 0.0
24 08:35 Calm 7.00 Fair CLR 69.8 63 79% 30.16 0.0
24 08:15 Calm 5.00 Fog/Mist CLR 66.9 64 91% 30.16 0.0
24 07:55 Calm 4.00 Fog/Mist CLR 63.7 63.1 98% 30.16 0.0
24 07:35 Calm 4.00 Fog/Mist CLR 61.5 61 98% 30.15 0.0
24 07:15 Calm 3.00 Fog/Mist CLR 59.9 59.4 98% 30.15 0.0
24 06:55 Calm 2.50 Fog/Mist CLR 59.5 59 67.8 59 98% 30.15 0.0
24 06:35 Calm 3.00 Fog/Mist CLR 59.4 58.8 98% 30.14 0.0
24 06:15 Calm 7.00 Fair CLR 60.6 60.1 98% 30.14 0.0
24 05:55 Calm 4.00 Fog/Mist CLR 60.1 59.5 98% 30.14 0.0
24 05:35 Calm 5.00 Fog/Mist CLR 60.4 59.9 98% 30.14 0.0
24 05:15 Calm 4.00 Fog/Mist CLR 60.6 59.9 97% 30.14 0.0
24 04:55 Calm 4.00 Fog/Mist CLR 60.3 59.9 99% 30.14 0.0
24 04:35 Calm 4.00 Fog/Mist CLR 60.8 60.3 98% 30.14 0.0
24 04:15 Calm 5.00 Fog/Mist CLR 60.8 60.3 98% 30.14 0.0
24 03:55 Calm 7.00 Fair CLR 60.8 60.1 98% 30.14 0.0
24 03:35 Calm 10.00 Fair CLR 62.6 60.6 93% 30.14 0.0
24 03:15 SE 3 10.00 Fair CLR 66.2 60.8 83% 30.14 0.0
24 02:55 SE 3 10.00 Fair CLR 67.3 61.3 81% 30.14 0.0
24 02:35 Calm 10.00 Fair CLR 66.2 61.7 86% 30.14 0.0
24 02:15 Calm 10.00 Fair CLR 66.2 61.7 86% 30.14 0.0
24 01:55 S 5 10.00 Fair CLR 66.6 61.9 85% 30.14 0.0
24 01:35 S 5 10.00 Fair CLR 67.5 62.4 84% 30.14 0.0
24 01:15 S 5 10.00 Fair CLR 67.1 62.6 86% 30.14 0.0
24 00:55 S 3 10.00 Fair CLR 66.6 63.3 81.9 66.4 89% 30.14 0.0
24 00:15 SE 5 10.00 Fair CLR 68.4 64.6 88% 30.14 0.0
23 23:55 SE 5 7.00 Fair CLR 68.7 64.8 87% 30.14 0.0
23 23:35 SE 5 7.00 Fair CLR 70.2 65.5 85% 30.13 0.0
23 23:15 SE 6 7.00 Fair CLR 71.6 65.7 82% 30.13 0.0
23 22:55 SE 7 7.00 Fair CLR 71.8 65.8 82% 30.13 0.0
23 22:35 SE 6 7.00 Fair CLR 70.7 65.7 84% 30.12 0.0
23 22:15 SE 5 10.00 Fair CLR 70.3 65.5 85% 30.12 0.0
23 21:55 SE 6 10.00 Fair CLR 72.1 64.9 78% 30.11 0.0
23 21:35 SE 6 10.00 Fair CLR 73.8 64.6 73% 30.11 0.0
23 21:15 SE 7 10.00 Fair CLR 74.3 64.8 72% 30.11 0.0
23 20:55 SE 7 10.00 Fair CLR 76.1 64.8 68% 78 30.11 0.0
23 20:35 SE 7 10.00 Fair CLR 77.5 65.5 67% 79 30.1 0.0
23 20:15 SE 7 10.00 Fair CLR 79.3 64.9 62% 81 30.1 0.0
23 19:55 SE 7 10.00 Fair CLR 80.2 65.1 60% 82 30.1 0.0
23 19:35 SE 7 10.00 Fair CLR 81 65.5 59% 83 30.1 0.0
23 19:15 SE 6 10.00 Fair CLR 81.9 63.9 55% 83 30.1 0.0
23 18:55 SE 7 10.00 Fair CLR 81.9 63.5 86 81.5 54% 83 30.1 0.0
23 18:35 S 9 10.00 Fair CLR 82.8 63.1 52% 84 30.09 0.0
23 18:15 S 8 10.00 Fair CLR 83.3 63.9 52% 85 30.1 0.0
23 17:55 SE 8 10.00 Fair CLR 84.6 64.2 51% 86 30.1 0.0
23 17:35 S 3 10.00 Fair CLR 85.3 60.3 43% 85 30.1 0.0
23 17:15 Calm 10.00 Fair CLR 85.5 59.9 42% 85 30.1 0.0
23 16:55 Calm 10.00 Fair CLR 86 60.3 42% 86 30.11 0.0
23 16:35 SW 3 10.00 Fair CLR 86 60.6 43% 86 30.1 0.0
23 16:15 S 5 10.00 Fair CLR 85.6 61.2 44% 86 30.1 0.0
23 15:55 S 5 10.00 Fair CLR 85.3 60.1 43% 85 30.1 0.0
23 15:35 S 5 10.00 Fair CLR 85.1 61.7 45% 86 30.1 0.0
23 15:15 SE 3 10.00 Fair CLR 85.1 59.9 43% 85 30.11 0.0
23 14:55 SE 3 10.00 Partly Cloudy SCT048 84.2 60.3 44% 84 30.11 0.0
23 14:35 Calm 10.00 Fair CLR 84.6 61.3 46% 85 30.11 0.0
23 14:15 S 5 10.00 Fair CLR 83.7 60.8 46% 84 30.11 0.0
23 13:55 Calm 10.00 Fair CLR 83.7 61.5 47% 84 30.11 0.0
23 13:35 S 3 10.00 Fair CLR 82.8 60.6 47% 83 30.11 0.0
23 13:15 Calm 10.00 Fair CLR 81.5 56.7 43% 81 30.11 0.0
23 12:55 S 5 10.00 Fair CLR 81.9 59.7 81.9 55.4 47% 82 30.12 0.0
23 12:35 Calm 10.00 Fair CLR 81 62.6 54% 82 30.12 0.0
23 12:15 Calm 10.00 Fair CLR 80.2 62.2 54% 81 30.13 0.0
23 11:55 Calm 10.00 Fair CLR 79 62.2 57% 80 30.13 0.0
23 11:35 Calm 10.00 Fair CLR 78.1 61 56% 80 30.13 0.0
23 11:15 Calm 10.00 Fair CLR 77.9 62.2 59% 80 30.13 0.0
23 10:55 Calm 10.00 Fair CLR 76.8 61.9 60% 79 30.13 0.0
23 10:35 Calm 10.00 Fair CLR 74.1 65.1 74% 30.13 0.0
23 10:15 Calm 10.00 Fair CLR 71.1 65.5 83% 30.12 0.0
23 09:55 Calm 10.00 Fair CLR 67.6 67.1 98% 30.13 0.0
23 09:35 Calm 7.00 Fair CLR 66.6 66.2 99% 30.13 0.0
23 09:15 Calm 5.00 Fog/Mist CLR 65.3 64.8 98% 30.12 0.0
23 08:55 Calm 4.00 Fog/Mist CLR 64 63.5 98% 30.12 0.0
23 08:35 Calm 3.00 Fog/Mist CLR 62.4 61.9 98% 30.12 0.0
23 08:15 Calm 1.75 Fog/Mist VV007 61 60.4 98% 30.12 0.0
23 07:55 Calm 0.50 Fog VV005 59.2 58.6 98% 30.12 0.0
23 07:35 Calm 0.50 Fog VV005 57.4 56.7 97% 30.12 0.0
23 07:15 Calm 0.25 Fog VV002 55.9 55.4 98% 30.11 0.0
23 06:55 NW 5 0.25 Fog VV002 56.5 56.1 64.6 55.4 99% 30.11 0.0
23 06:35 Calm 0.50 Fog VV005 55.6 55 98% 30.11 0.0
23 06:15 Calm 0.50 Fog VV005 56.7 56.1 98% 30.11 0.0
23 05:55 Calm 0.25 Fog VV002 57.2 56.5 97% 30.11 0.0
23 05:35 Calm 1.00 Fog/Mist VV007 57.4 56.7 97% 30.11 0.0
23 05:15 Calm 1.25 Fog/Mist SCT001 57.4 57 99% 30.11 0.0
23 04:55 E 3 0.25 Fog OVC001 56.8 56.3 98% 30.11 0.0
23 04:35 Calm 0.25 Fog BKN001 57.6 57.2 99% 30.1 0.0
23 04:15 Calm 0.25 Fog BKN001 57.4 56.8 98% 30.1 0.0
23 03:55 Calm 0.15 Fog BKN001 58.6 58.1 98% 30.1 0.0
23 03:35 Calm 0.25 Fog VV002 58.8 58.1 97% 30.1 0.0
23 03:15 Calm 0.25 Fog VV002 58.8 58.1 97% 30.11 0.0
23 02:55 Calm 0.75 Fog/Mist VV005 59.5 59 98% 30.1 0.0
23 02:35 Calm 1.25 Fog/Mist VV007 60.3 59.7 98% 30.1 0.0
23 02:15 Calm 2.50 Fog/Mist CLR 60.1 59.7 99% 30.11 0.0
23 01:35 Calm 4.00 Fog/Mist CLR 62.8 62.2 98% 30.11 0.0
23 01:15 Calm 7.00 Fair CLR 63.9 63.3 98% 30.11 0.0
23 00:55 Calm 7.00 Fair CLR 64 63.5 78.3 64 98% 30.11 0.0
23 00:35 SE 3 10.00 Fair CLR 64.6 63.5 96% 30.11 0.0
23 00:15 SE 5 10.00 Fair CLR 65.8 64 94% 30.12 0.0
22 23:55 SE 3 7.00 Fair CLR 65.8 64.4 95% 30.12 0.0
22 23:35 SE 3 7.00 Fair CLR 66 64 93% 30.11 0.0
22 23:15 Calm 7.00 Fair CLR 66.7 64.2 92% 30.11 0.0
22 22:55 S 3 10.00 Fair CLR 66.6 64 92% 30.11 0.0
22 22:35 SE 6 10.00 Fair CLR 67.6 63.5 87% 30.1 0.0
22 22:15 SE 5 10.00 Fair CLR 67.8 63.5 86% 30.1 0.0
22 21:55 S 6 10.00 Fair CLR 68 64.4 88% 30.09 0.0
22 21:15 SE 3 10.00 Fair CLR 71.6 62.8 74% 30.08 0.0
22 20:55 SE 5 10.00 Fair CLR 72 63.9 76% 30.08 0.0
22 20:35 SE 5 10.00 Fair CLR 74.5 63.5 69% 30.08 0.0
22 20:15 SE 7 10.00 Fair CLR 75.4 63.7 67% 77 30.07 0.0
22 19:55 SE 5 10.00 Fair CLR 76.1 63.5 65% 78 30.07 0.0
22 19:35 E 7 10.00 Fair CLR 77 63.3 63% 79 30.07 0.0
22 19:15 SE 5 10.00 Fair CLR 77.9 63 60% 80 30.06 0.0
22 18:55 E 5 10.00 Fair CLR 78.3 63 80.4 77.2 59% 80 30.06 0.0
22 18:35 E 3 10.00 Fair CLR 78.8 62.8 58% 80 30.06 0.0
22 18:15 E 8 10.00 Fair CLR 79 63.1 58% 81 30.06 0.0
22 17:55 Calm 10.00 Fair CLR 79.3 61.5 55% 81 30.06 0.0
22 17:35 Calm 10.00 Fair CLR 79.9 62.8 56% 81 30.07 0.0
22 17:15 SE 3 10.00 Fair CLR 79.9 63.1 57% 81 30.07 0.0
22 16:55 E 6 10.00 Fair CLR 79.9 62.6 56% 81 30.08 0.0
22 16:15 E 8 10.00 Fair CLR 80.2 63.9 57% 82 30.08 0.0
22 15:55 E 6 10.00 Fair CLR 79.3 63.7 59% 81 30.09 0.0
22 15:35 E 7 10.00 Partly Cloudy SCT110 79.5 64.2 60% 81 30.1 0.0
22 15:15 E 8 10.00 Partly Cloudy SCT046 SCT060 SCT070 79.2 63 58% 81 30.1 0.0
Date Time (cdt) Wind (mph) Vis. (mi.) Weather Sky Cond. Air Dwpt Max. Min. Relative Humidity Wind Chill (°F) Heat Index (°F) altimeter (in) sea level (mb) 1 hr 3 hr 6 hr
6 hour
Temperature (ºF) Pressure Precipitation (in)